Location: Berlin
(52.5171°N, 13.3759°E)
Time: 06:37:59
(UTC+01:00)

ISS - Pass Details

Date: 12 January 2018
Orbit: 402 x 407 km, 51.6° (Epoch: 18 January)

Event Time Altitude Azimuth Distance (km) Brightness Sun altitude
Exits shadow 06:23:55 22° 230° (SW) 954 -2.3 -15.7°
Maximum altitude 06:24:32 23° 212° (SSW) 916 -2.2 -15.6°
Drops below altitude 10° 06:27:12 10° 157° (SSE) 1,463 -0.5 -15.2°
Sets 06:29:31 0° 143° (SE) 2,321 0.9 -14.8°
